JST718 YMLT-YMML

Flight info

Callsign JST718
Flight time 0h 43m
Altitude 30000
Route LT H215 RAZZI W687 ML
Aircraft A321/M-SDE3FGHIRWY/LB1

Departure

Time 2026-04-26 23:12
Airport Launceston Airport (YMLT)

Arrival

Time 2026-04-26 23:55
Airport Melbourne Airport (YMML)
Time Latitude Longitude Altitude Speed Heading
2026-04-26 23:02 -41.54264 147.20637 583 ft 0 kts 294°
2026-04-26 23:05 -41.54262 147.20635 583 ft 1 kts 301°
2026-04-26 23:05 -41.54252 147.20631 583 ft 1 kts 357°
2026-04-26 23:06 -41.54249 147.20638 583 ft 1 kts 50°
2026-04-26 23:06 -41.54248 147.20640 583 ft 1 kts 51°
2026-04-26 23:06 -41.54248 147.20655 583 ft 4 kts 80°
2026-04-26 23:06 -41.54264 147.20693 584 ft 7 kts 134°
2026-04-26 23:07 -41.54313 147.20742 584 ft 11 kts 146°
2026-04-26 23:07 -41.54385 147.20805 584 ft 14 kts 147°
2026-04-26 23:07 -41.54468 147.20876 586 ft 14 kts 147°
2026-04-26 23:07 -41.54539 147.20937 590 ft 11 kts 147°
2026-04-26 23:08 -41.54613 147.20999 589 ft 14 kts 148°
2026-04-26 23:08 -41.54704 147.21078 588 ft 17 kts 147°
2026-04-26 23:08 -41.54806 147.21164 585 ft 18 kts 148°
2026-04-26 23:08 -41.54917 147.21259 583 ft 19 kts 147°
2026-04-26 23:09 -41.55024 147.21350 584 ft 19 kts 147°
2026-04-26 23:09 -41.55125 147.21440 584 ft 11 kts 147°
2026-04-26 23:09 -41.55180 147.21485 586 ft 8 kts 148°
2026-04-26 23:09 -41.55222 147.21535 587 ft 8 kts 121°
2026-04-26 23:10 -41.55228 147.21610 589 ft 8 kts 82°
2026-04-26 23:10 -41.55206 147.21672 591 ft 7 kts 58°
2026-04-26 23:10 -41.55170 147.21676 592 ft 6 kts 319°
2026-04-26 23:10 -41.55158 147.21663 592 ft 0 kts 323°
2026-04-26 23:11 -41.55155 147.21660 592 ft 1 kts 323°
2026-04-26 23:11 -41.55035 147.21556 590 ft 55 kts 326°
2026-04-26 23:11 -41.54516 147.21109 593 ft 118 kts 327°
2026-04-26 23:11 -41.53714 147.20425 869 ft 140 kts 326°
2026-04-26 23:12 -41.52887 147.19712 1472 ft 147 kts 328°
2026-04-26 23:12 -41.51958 147.19072 2093 ft 153 kts 337°
2026-04-26 23:12 -41.50930 147.18521 2605 ft 170 kts 338°
2026-04-26 23:12 -41.49756 147.17913 3007 ft 192 kts 338°
2026-04-26 23:13 -41.48430 147.17222 3432 ft 217 kts 337°
2026-04-26 23:13 -41.46944 147.16438 3938 ft 242 kts 336°
2026-04-26 23:13 -41.45325 147.15578 4641 ft 255 kts 335°
2026-04-26 23:13 -41.43666 147.14698 5483 ft 258 kts 334°
2026-04-26 23:14 -41.42001 147.13811 6408 ft 259 kts 334°
2026-04-26 23:14 -41.40326 147.12915 7243 ft 261 kts 334°
2026-04-26 23:14 -41.38632 147.12009 8023 ft 265 kts 334°
2026-04-26 23:14 -41.36908 147.11088 8770 ft 269 kts 334°
2026-04-26 23:15 -41.35156 147.10150 9515 ft 274 kts 334°
2026-04-26 23:15 -41.33370 147.09194 10239 ft 280 kts 334°
2026-04-26 23:15 -41.31494 147.08185 10492 ft 302 kts 334°
2026-04-26 23:15 -41.29484 147.07101 10737 ft 321 kts 335°
2026-04-26 23:16 -41.27388 147.05979 11280 ft 328 kts 335°
2026-04-26 23:16 -41.25251 147.04844 11909 ft 333 kts 335°
2026-04-26 23:16 -41.23081 147.03694 12513 ft 338 kts 335°
2026-04-26 23:16 -41.20879 147.02524 13105 ft 343 kts 335°
2026-04-26 23:17 -41.18647 147.01334 13715 ft 348 kts 334°
2026-04-26 23:17 -41.16383 147.00129 14281 ft 353 kts 334°
2026-04-26 23:17 -41.14093 146.98909 14826 ft 356 kts 335°
2026-04-26 23:17 -41.11786 146.97679 15404 ft 358 kts 334°
2026-04-26 23:18 -41.09467 146.96441 15978 ft 361 kts 334°
2026-04-26 23:18 -41.07128 146.95198 16527 ft 364 kts 335°
2026-04-26 23:18 -41.04799 146.93964 17068 ft 367 kts 335°
2026-04-26 23:18 -41.02416 146.92705 17595 ft 371 kts 335°
2026-04-26 23:19 -41.00009 146.91438 18138 ft 374 kts 335°
2026-04-26 23:19 -40.97555 146.90141 18663 ft 377 kts 335°
2026-04-26 23:19 -40.95142 146.88862 19115 ft 380 kts 335°
2026-04-26 23:19 -40.92674 146.87553 19591 ft 384 kts 335°
2026-04-26 23:20 -40.90183 146.86233 20054 ft 388 kts 335°
2026-04-26 23:20 -40.87666 146.84906 20514 ft 391 kts 335°
2026-04-26 23:20 -40.85126 146.83572 20972 ft 394 kts 335°
2026-04-26 23:20 -40.82564 146.82226 21398 ft 398 kts 335°
2026-04-26 23:21 -40.79979 146.80866 21788 ft 402 kts 334°
2026-04-26 23:21 -40.77369 146.79490 22201 ft 406 kts 334°
2026-04-26 23:21 -40.74743 146.78107 22615 ft 409 kts 334°
2026-04-26 23:21 -40.72089 146.76711 23033 ft 412 kts 334°
2026-04-26 23:22 -40.69413 146.75305 23448 ft 416 kts 334°
2026-04-26 23:22 -40.66715 146.73891 23849 ft 419 kts 334°
2026-04-26 23:22 -40.63997 146.72469 24206 ft 421 kts 334°
2026-04-26 23:22 -40.61262 146.71039 24553 ft 424 kts 334°
2026-04-26 23:23 -40.58497 146.69594 24801 ft 430 kts 334°
2026-04-26 23:23 -40.55702 146.68140 25100 ft 434 kts 334°
2026-04-26 23:23 -40.52885 146.66674 25421 ft 437 kts 334°
2026-04-26 23:23 -40.50046 146.65195 25726 ft 441 kts 334°
2026-04-26 23:24 -40.47185 146.63704 26041 ft 444 kts 334°
2026-04-26 23:24 -40.44303 146.62203 26357 ft 447 kts 334°
2026-04-26 23:24 -40.41400 146.60693 26684 ft 450 kts 334°
2026-04-26 23:24 -40.38478 146.59175 26963 ft 454 kts 334°
2026-04-26 23:25 -40.35530 146.57645 27248 ft 457 kts 334°
2026-04-26 23:25 -40.32566 146.56107 27537 ft 461 kts 334°
2026-04-26 23:25 -40.29574 146.54557 27831 ft 464 kts 334°
2026-04-26 23:25 -40.26559 146.52998 28131 ft 467 kts 334°
2026-04-26 23:26 -40.23525 146.51430 28427 ft 470 kts 334°
2026-04-26 23:26 -40.20470 146.49857 28730 ft 473 kts 334°
2026-04-26 23:26 -40.17395 146.48275 29031 ft 477 kts 334°
2026-04-26 23:26 -40.14299 146.46680 29310 ft 480 kts 334°
2026-04-26 23:27 -40.11184 146.45072 29604 ft 483 kts 334°
2026-04-26 23:27 -40.08049 146.43455 29909 ft 486 kts 334°
2026-04-26 23:27 -40.04943 146.41858 30238 ft 487 kts 334°
2026-04-26 23:28 -39.98680 146.38655 30306 ft 474 kts 334°
2026-04-26 23:28 -39.92574 146.35527 30307 ft 471 kts 334°
2026-04-26 23:29 -39.86526 146.32415 30309 ft 470 kts 334°
2026-04-26 23:29 -39.80443 146.29285 30310 ft 470 kts 334°
2026-04-26 23:30 -39.74353 146.26159 30298 ft 471 kts 334°
2026-04-26 23:30 -39.68240 146.23046 30299 ft 472 kts 334°
2026-04-26 23:31 -39.62121 146.19929 30309 ft 473 kts 334°
2026-04-26 23:31 -39.56005 146.16818 30319 ft 473 kts 334°
2026-04-26 23:32 -39.49886 146.13701 30324 ft 472 kts 334°
2026-04-26 23:32 -39.43765 146.10593 30325 ft 472 kts 334°
2026-04-26 23:33 -39.37640 146.07499 30331 ft 473 kts 334°
2026-04-26 23:33 -39.31513 146.04405 30311 ft 473 kts 334°
2026-04-26 23:34 -39.25390 146.01306 30313 ft 473 kts 335°
2026-04-26 23:34 -39.19256 145.98223 30316 ft 473 kts 335°
2026-04-26 23:35 -39.13123 145.95148 30317 ft 473 kts 335°
2026-04-26 23:35 -39.07011 145.92078 30308 ft 476 kts 335°
2026-04-26 23:35 -39.03939 145.90536 29789 ft 472 kts 335°
2026-04-26 23:36 -39.00893 145.89010 29282 ft 468 kts 335°
2026-04-26 23:36 -38.97877 145.87501 28807 ft 463 kts 335°
2026-04-26 23:36 -38.94892 145.86011 28345 ft 458 kts 335°
2026-04-26 23:36 -38.91923 145.84532 27443 ft 463 kts 335°
2026-04-26 23:37 -38.88850 145.82999 26911 ft 475 kts 335°
2026-04-26 23:37 -38.85767 145.81458 26435 ft 485 kts 335°
2026-04-26 23:37 -38.82622 145.79890 25922 ft 483 kts 335°
2026-04-26 23:37 -38.79501 145.78337 25382 ft 479 kts 336°
2026-04-26 23:38 -38.76409 145.76804 24873 ft 474 kts 336°
2026-04-26 23:38 -38.73346 145.75291 24326 ft 469 kts 336°
2026-04-26 23:38 -38.70316 145.73798 23792 ft 464 kts 336°
2026-04-26 23:38 -38.67326 145.72324 23208 ft 458 kts 336°
2026-04-26 23:39 -38.64366 145.70860 22688 ft 454 kts 336°
2026-04-26 23:39 -38.61435 145.69407 22158 ft 449 kts 336°
2026-04-26 23:39 -38.58532 145.67971 21628 ft 445 kts 336°
2026-04-26 23:39 -38.55655 145.66547 21097 ft 442 kts 336°
2026-04-26 23:40 -38.52801 145.65140 20591 ft 437 kts 336°
2026-04-26 23:40 -38.49973 145.63747 20077 ft 433 kts 337°
2026-04-26 23:40 -38.47184 145.62336 19597 ft 429 kts 333°
2026-04-26 23:40 -38.45444 145.61184 19292 ft 425 kts 329°
2026-04-26 23:41 -38.42855 145.59389 18823 ft 422 kts 329°
2026-04-26 23:41 -38.40283 145.57615 18313 ft 418 kts 329°
2026-04-26 23:41 -38.37732 145.55859 17849 ft 414 kts 329°
2026-04-26 23:41 -38.35208 145.54124 17380 ft 410 kts 330°
2026-04-26 23:42 -38.32705 145.52407 16912 ft 406 kts 330°
2026-04-26 23:42 -38.27770 145.49028 16004 ft 399 kts 330°
2026-04-26 23:42 -38.25341 145.47359 15555 ft 395 kts 330°
2026-04-26 23:43 -38.22938 145.45706 15102 ft 390 kts 330°
2026-04-26 23:43 -38.20569 145.44080 14785 ft 380 kts 330°
2026-04-26 23:43 -38.18323 145.42545 14638 ft 353 kts 330°
2026-04-26 23:43 -38.16210 145.41101 14188 ft 339 kts 330°
2026-04-26 23:44 -38.14158 145.39699 13512 ft 331 kts 330°
2026-04-26 23:44 -38.12153 145.38328 12919 ft 323 kts 330°
2026-04-26 23:44 -38.10223 145.37007 12627 ft 310 kts 330°
2026-04-26 23:44 -38.08329 145.35712 12267 ft 308 kts 330°
2026-04-26 23:45 -38.06445 145.34426 11905 ft 307 kts 330°
2026-04-26 23:45 -38.04570 145.33149 11539 ft 305 kts 330°
2026-04-26 23:45 -38.02707 145.31882 11176 ft 304 kts 330°
2026-04-26 23:45 -38.00849 145.30617 10808 ft 302 kts 330°
2026-04-26 23:46 -37.99025 145.29349 10630 ft 294 kts 329°
2026-04-26 23:46 -37.97266 145.28112 10513 ft 284 kts 329°
2026-04-26 23:46 -37.95564 145.26915 10387 ft 275 kts 329°
2026-04-26 23:46 -37.93914 145.25756 10274 ft 267 kts 329°
2026-04-26 23:47 -37.92312 145.24633 10104 ft 259 kts 329°
2026-04-26 23:47 -37.90750 145.23539 9617 ft 256 kts 329°
2026-04-26 23:47 -37.89195 145.22452 9107 ft 254 kts 329°
2026-04-26 23:47 -37.87659 145.21381 8604 ft 251 kts 329°
2026-04-26 23:48 -37.86156 145.20332 8120 ft 249 kts 329°
2026-04-26 23:48 -37.84646 145.19274 7626 ft 247 kts 329°
2026-04-26 23:48 -37.83140 145.18237 7143 ft 246 kts 330°
2026-04-26 23:48 -37.81617 145.17215 6677 ft 243 kts 331°
2026-04-26 23:49 -37.80149 145.16243 6283 ft 238 kts 331°
2026-04-26 23:49 -37.78708 145.15292 5966 ft 229 kts 330°
2026-04-26 23:49 -37.77322 145.14373 5680 ft 222 kts 330°
2026-04-26 23:49 -37.75959 145.13469 5403 ft 221 kts 330°
2026-04-26 23:50 -37.74605 145.12571 5115 ft 220 kts 330°
2026-04-26 23:50 -37.73246 145.11665 4840 ft 221 kts 329°
2026-04-26 23:50 -37.72065 145.10455 4557 ft 219 kts 309°
2026-04-26 23:50 -37.71125 145.08954 4285 ft 216 kts 308°
2026-04-26 23:51 -37.70193 145.07470 4006 ft 215 kts 308°
2026-04-26 23:51 -37.69262 145.05994 3734 ft 214 kts 309°
2026-04-26 23:51 -37.68333 145.04524 3459 ft 213 kts 309°
2026-04-26 23:51 -37.67489 145.03009 3232 ft 210 kts 295°
2026-04-26 23:52 -37.67157 145.01236 2996 ft 208 kts 275°
2026-04-26 23:52 -37.67056 144.99412 2729 ft 208 kts 274°
2026-04-26 23:52 -37.66958 144.97596 2451 ft 207 kts 274°
2026-04-26 23:52 -37.66856 144.95782 2173 ft 206 kts 274°
2026-04-26 23:53 -37.66755 144.94019 1917 ft 195 kts 273°
2026-04-26 23:53 -37.66660 144.92370 1651 ft 182 kts 273°
2026-04-26 23:53 -37.66573 144.90850 1391 ft 166 kts 273°
2026-04-26 23:53 -37.66493 144.89450 1190 ft 153 kts 274°
2026-04-26 23:54 -37.66416 144.88136 959 ft 147 kts 274°
2026-04-26 23:54 -37.66337 144.86865 775 ft 144 kts 274°
2026-04-26 23:54 -37.66271 144.85609 582 ft 143 kts 275°
2026-04-26 23:54 -37.66201 144.84380 408 ft 137 kts 274°
2026-04-26 23:55 -37.66146 144.83427 414 ft 62 kts 275°
2026-04-26 23:55 -37.66132 144.83080 411 ft 33 kts 261°
2026-04-26 23:55 -37.66215 144.82811 401 ft 28 kts 243°
2026-04-26 23:55 -37.66340 144.82679 391 ft 25 kts 178°
2026-04-26 23:56 -37.66449 144.82836 385 ft 28 kts 96°
2026-04-26 23:56 -37.66463 144.83075 394 ft 26 kts 95°
2026-04-26 23:56 -37.66477 144.83298 399 ft 25 kts 94°
2026-04-26 23:56 -37.66489 144.83515 404 ft 25 kts 95°
2026-04-26 23:57 -37.66501 144.83739 404 ft 26 kts 93°
2026-04-26 23:57 -37.66529 144.83922 402 ft 19 kts 134°
2026-04-26 23:57 -37.66668 144.83958 397 ft 24 kts 173°
2026-04-26 23:57 -37.66834 144.83991 391 ft 22 kts 172°
2026-04-26 23:58 -37.66975 144.84018 386 ft 18 kts 171°
2026-04-26 23:58 -37.67090 144.84039 382 ft 16 kts 173°
2026-04-26 23:58 -37.67190 144.84057 379 ft 15 kts 171°
2026-04-26 23:58 -37.67294 144.84077 376 ft 16 kts 172°
2026-04-26 23:59 -37.67396 144.84097 374 ft 13 kts 171°
2026-04-26 23:59 -37.67497 144.84146 371 ft 19 kts 116°
2026-04-26 23:59 -37.67485 144.84319 375 ft 15 kts 81°
2026-04-26 23:59 -37.67469 144.84446 378 ft 10 kts 82°
2026-04-27 00:00 -37.67459 144.84540 379 ft 13 kts 82°
2026-04-27 00:00 -37.67449 144.84628 381 ft 9 kts 77°
2026-04-27 00:00 -37.67392 144.84638 382 ft 7 kts 353°
2026-04-27 00:00 -37.67366 144.84633 383 ft 2 kts 351°
2026-04-27 00:01 -37.67351 144.84629 383 ft 1 kts 351°
2026-04-27 00:01 -37.67350 144.84629 383 ft 0 kts 351°